Location: Pian di Sc�
(43.6333°N, 11.5500°E)
Time: 14:17:14
(UTC+00:00)

Helios 1B - Pass Details

Date: 07 August 2020
Orbit: 620 x 623 km, 98.3° (Epoch: 25 September)

Event Time Altitude Azimuth Distance (km) Brightness Sun altitude
Exits shadow 02:46:52 -1° 170° (S) 2,947 7.8 -13.6°
Rises 02:47:01 0° 170° (S) 2,889 7.7 -13.6°
Reaches altitude 10° 02:49:11 10° 172° (S) 1,987 6.9 -13.3°
Maximum altitude 02:53:31 73° 258° (WSW) 656 4.5 -12.7°
Drops below altitude 10° 02:57:52 10° 343° (NNW) 2,003 7.4 -12.1°
Sets 03:00:04 0° 345° (NNW) 2,914 8.3 -11.7°
